Zurück zum Katalog

RS-44

BREEZE-KM R/B

AktivAmateurfunkPO
NORAD 44909·PAYLOAD·🇷🇺 Russia

Gestartet Dec 26, 2019 von Plesetsk Cosmodrome

Loading…

Nächste Überflüge (nächste 24 Stunden)

TLE

AktuellSource: AMSAT

Epoche: Sep 14, 2026, 12:29 UTC

1 44909U 19096E   26257.52050106  .00000013  00000-0  15325-4 0  9996
2 44909  82.5172 280.3462 0216440 295.6457  62.2427 12.79749361313776

Verfolge RS-44 in Echtzeit mit AllMySat

Download on the App Store